sat.trackr.live / text

‹ back to catalog

STARLINK-31949

NORAD 59891 · 2024-100G

PAYLOAD ACTIVE UNKNOWN

§ Identity

Operator
Country
US
Launch date
2024-05-28
Launch site
AFETR
Launch vehicle
Mass (kg)
RCS (m²)

Purposes: comms

External: N2YO · Heavens-Above · Gunter

§ Orbital elements

Epoch: 2026-09-20T23:22:17.133024Z

Period
94.27 min
Inclination
43.0005°
Eccentricity
0.0001109
Mean motion
15.27573791 rev/d
Perigee alt
482.3 km
Apogee alt
483.8 km
Semi-major
6,861.2 km
B*
2.1177e-6
RAAN
102.4754°
Arg perigee
268.0670°
Mean anomaly
92.0055°
Rev number
13,092

§ Raw data

STARLINK-319491 59891U 24100G   26263.97380941 -.00000204  00000+0  21177-5 0  99982 59891  43.0005 102.4754 0001109 268.0670  92.0055 15.27573791130922

JSON: /api/v1/satellites/59891 · /tle

For live sub-satellite position, see the globe view (requires WebGL).

§ Visibility from observer

Set your observer location to see the next 7 days of passes ≥ 10°. The values pass through the URL so the page stays shareable.

No JS? Fill the form by hand. The geolocation button needs JavaScript.